User: anonymous
Location: Unspecified
(0.0000°N, 0.0000°E)
Time: 22:08:22
(UTC+02:00)
Language:

GPS 2-05 Rocket1 - Orbit

View from above orbital plane
View from above orbital plane
View from above satellite
View from above satellite

Ground track
Ground track

The orbit data is extracted from the following two-line orbital elements,

1 20362U 89097B   14204.41089030  .00003973  00000-0  14196-3 0  4757
2 20362 035.6223 176.6284 0108134 069.8176 066.5208 15.23083718336416
Epoch (UTC): 23 July 2014 09:51:40
Eccentricity: 0.0108134
inclination: 35.6223°
perigee height: 422 km
apogee height: 571 km
right ascension of ascending node: 176.6284°
argument of perigee: 69.8176°
revolutions per day: 15.23083718
mean anomaly at epoch: 66.5208°
orbit number at epoch: 33641

The dashed part of the orbit path shows where the satellite is in the earth's shadow,  

DLR